Year,Month,Day,Hour,Minute,Value (Times are PST for temperature in C)
2011,05,28,00,00,8.20
2011,05,28,00,01,8.20
2011,05,28,00,02,8.20
2011,05,28,00,03,8.20
2011,05,28,00,04,8.20
2011,05,28,00,05,8.20
2011,05,28,00,06,8.20
2011,05,28,00,07,8.20
2011,05,28,00,08,8.20
2011,05,28,00,09,8.20
2011,05,28,00,10,8.20
2011,05,28,00,11,8.20
2011,05,28,00,12,8.20
2011,05,28,00,13,8.20
2011,05,28,00,14,8.20
2011,05,28,00,15,8.20
2011,05,28,00,16,8.20
2011,05,28,00,17,8.10
2011,05,28,00,18,8.10
2011,05,28,00,19,8.10
2011,05,28,00,20,8.10
2011,05,28,00,21,8.10
2011,05,28,00,22,8.10
2011,05,28,00,23,8.10
2011,05,28,00,24,8.00
2011,05,28,00,25,8.00
2011,05,28,00,26,8.00
2011,05,28,00,27,8.00
2011,05,28,00,28,8.00
2011,05,28,00,29,7.90
2011,05,28,00,30,7.90
2011,05,28,00,31,7.90
2011,05,28,00,32,7.90
2011,05,28,00,33,7.80
2011,05,28,00,34,7.80
2011,05,28,00,35,7.80
2011,05,28,00,36,7.70
2011,05,28,00,37,7.70
2011,05,28,00,38,7.70
2011,05,28,00,39,7.70
2011,05,28,00,40,7.60
2011,05,28,00,41,7.60
2011,05,28,00,42,7.60
2011,05,28,00,43,7.60
2011,05,28,00,44,7.60
2011,05,28,00,45,7.60
2011,05,28,00,46,7.60
2011,05,28,00,47,7.60
2011,05,28,00,48,7.60
2011,05,28,00,49,7.60
2011,05,28,00,50,7.60
2011,05,28,00,51,7.60
2011,05,28,00,52,7.60
2011,05,28,00,53,7.60
2011,05,28,00,54,7.60
2011,05,28,00,55,7.60
2011,05,28,00,56,7.60
2011,05,28,00,57,7.50
2011,05,28,00,58,7.60
2011,05,28,00,59,7.60
2011,05,28,01,00,7.60
2011,05,28,01,01,7.60
2011,05,28,01,02,7.60
2011,05,28,01,03,7.70
2011,05,28,01,04,7.70
2011,05,28,01,05,7.70
2011,05,28,01,06,7.70
2011,05,28,01,07,7.70
2011,05,28,01,08,7.70
2011,05,28,01,09,7.70
2011,05,28,01,10,7.70
2011,05,28,01,11,7.70
2011,05,28,01,12,7.70
2011,05,28,01,13,7.70
2011,05,28,01,14,7.70
2011,05,28,01,15,7.70
2011,05,28,01,16,7.70
2011,05,28,01,17,7.70
2011,05,28,01,18,7.70
2011,05,28,01,19,7.70
2011,05,28,01,20,7.70
2011,05,28,01,21,7.70
2011,05,28,01,22,7.60
2011,05,28,01,23,7.60
2011,05,28,01,24,7.60
2011,05,28,01,25,7.60
2011,05,28,01,26,7.60
2011,05,28,01,27,7.60
2011,05,28,01,28,7.60
2011,05,28,01,29,7.60
2011,05,28,01,30,7.60
2011,05,28,01,31,7.50
2011,05,28,01,32,7.50
2011,05,28,01,33,7.50
2011,05,28,01,34,7.50
2011,05,28,01,35,7.40
2011,05,28,01,36,7.40
2011,05,28,01,37,7.40
2011,05,28,01,38,7.40
2011,05,28,01,39,7.40
2011,05,28,01,40,7.40
2011,05,28,01,41,7.40
2011,05,28,01,42,7.40
2011,05,28,01,43,7.30
2011,05,28,01,44,7.30
2011,05,28,01,45,7.30
2011,05,28,01,46,7.30
2011,05,28,01,47,7.30
2011,05,28,01,48,7.30
2011,05,28,01,49,7.30
2011,05,28,01,50,7.30
2011,05,28,01,51,7.30
2011,05,28,01,52,7.30
2011,05,28,01,53,7.30
2011,05,28,01,54,7.30
2011,05,28,01,55,7.30
2011,05,28,01,56,7.30
2011,05,28,01,57,7.30
2011,05,28,01,58,7.30
2011,05,28,01,59,7.20
2011,05,28,02,00,7.20
2011,05,28,02,01,7.10
2011,05,28,02,02,7.10
2011,05,28,02,03,7.10
2011,05,28,02,04,7.00
2011,05,28,02,05,7.00
2011,05,28,02,06,7.00
2011,05,28,02,07,7.00
2011,05,28,02,08,7.00
2011,05,28,02,09,7.00
2011,05,28,02,10,7.00
2011,05,28,02,11,7.00
2011,05,28,02,12,7.00
2011,05,28,02,13,7.00
2011,05,28,02,14,6.90
2011,05,28,02,15,6.90
2011,05,28,02,16,6.90
2011,05,28,02,17,6.90
2011,05,28,02,18,6.90
2011,05,28,02,19,6.90
2011,05,28,02,20,6.90
2011,05,28,02,21,6.90
2011,05,28,02,22,6.90
2011,05,28,02,23,6.80
2011,05,28,02,24,6.80
2011,05,28,02,25,6.80
2011,05,28,02,26,6.80
2011,05,28,02,27,6.80
2011,05,28,02,28,6.70
2011,05,28,02,29,6.70
2011,05,28,02,30,6.70
2011,05,28,02,31,6.70
2011,05,28,02,32,6.70
2011,05,28,02,33,6.60
2011,05,28,02,34,6.60
2011,05,28,02,35,6.60
2011,05,28,02,36,6.60
2011,05,28,02,37,6.50
2011,05,28,02,38,6.40
2011,05,28,02,39,6.40
2011,05,28,02,40,6.40
2011,05,28,02,41,6.40
2011,05,28,02,42,6.40
2011,05,28,02,43,6.40
2011,05,28,02,44,6.40
2011,05,28,02,45,6.40
2011,05,28,02,46,6.30
2011,05,28,02,47,6.30
2011,05,28,02,48,6.30
2011,05,28,02,49,6.30
2011,05,28,02,50,6.30
2011,05,28,02,51,6.30
2011,05,28,02,52,6.30
2011,05,28,02,53,6.30
2011,05,28,02,54,6.40
2011,05,28,02,55,6.40
2011,05,28,02,56,6.40
2011,05,28,02,57,6.30
2011,05,28,02,58,6.30
2011,05,28,02,59,6.30
2011,05,28,03,00,6.30
2011,05,28,03,01,6.30
2011,05,28,03,02,6.20
2011,05,28,03,03,6.20
2011,05,28,03,04,6.20
2011,05,28,03,05,6.20
2011,05,28,03,06,6.20
2011,05,28,03,07,6.20
2011,05,28,03,08,6.20
2011,05,28,03,09,6.20
2011,05,28,03,10,6.20
2011,05,28,03,11,6.20
2011,05,28,03,12,6.20
2011,05,28,03,13,6.20
2011,05,28,03,14,6.20
2011,05,28,03,15,6.10
2011,05,28,03,16,6.10
2011,05,28,03,17,6.00
2011,05,28,03,18,6.00
2011,05,28,03,19,6.00
2011,05,28,03,20,5.90
2011,05,28,03,21,5.80
2011,05,28,03,22,5.70
2011,05,28,03,23,5.70
2011,05,28,03,24,5.70
2011,05,28,03,25,5.70
2011,05,28,03,26,5.70
2011,05,28,03,27,5.70
2011,05,28,03,28,5.80
2011,05,28,03,29,5.80
2011,05,28,03,30,5.80
2011,05,28,03,31,5.80
2011,05,28,03,32,5.80
2011,05,28,03,33,5.80
2011,05,28,03,34,5.80
2011,05,28,03,35,5.80
2011,05,28,03,36,5.80
2011,05,28,03,37,5.80
2011,05,28,03,38,5.70
2011,05,28,03,39,5.70
2011,05,28,03,40,5.70
2011,05,28,03,41,5.70
2011,05,28,03,42,5.70
2011,05,28,03,43,5.70
2011,05,28,03,44,5.70
2011,05,28,03,45,5.70
2011,05,28,03,46,5.70
2011,05,28,03,47,5.70
2011,05,28,03,48,5.70
2011,05,28,03,49,5.70
2011,05,28,03,50,5.70
2011,05,28,03,51,5.70
2011,05,28,03,52,5.70
2011,05,28,03,53,5.70
2011,05,28,03,54,5.70
2011,05,28,03,55,5.70
2011,05,28,03,56,5.70
2011,05,28,03,57,5.70
2011,05,28,03,58,5.70
2011,05,28,03,59,5.70
2011,05,28,04,00,5.70
2011,05,28,04,01,5.70
2011,05,28,04,02,5.70
2011,05,28,04,03,5.70
2011,05,28,04,04,5.70
2011,05,28,04,05,5.70
2011,05,28,04,06,5.70
2011,05,28,04,07,5.70
2011,05,28,04,08,5.70
2011,05,28,04,09,5.70
2011,05,28,04,10,5.70
2011,05,28,04,11,5.70
2011,05,28,04,12,5.70
2011,05,28,04,13,5.70
2011,05,28,04,14,5.70
2011,05,28,04,15,5.80
2011,05,28,04,16,5.80
2011,05,28,04,17,5.80
2011,05,28,04,18,5.80
2011,05,28,04,19,5.80
2011,05,28,04,20,5.70
2011,05,28,04,21,5.70
2011,05,28,04,22,5.70
2011,05,28,04,23,5.70
2011,05,28,04,24,5.70
2011,05,28,04,25,5.70
2011,05,28,04,26,5.80
2011,05,28,04,27,5.80
2011,05,28,04,28,5.80
2011,05,28,04,29,5.80
2011,05,28,04,30,5.80
2011,05,28,04,31,5.80
2011,05,28,04,32,5.80
2011,05,28,04,33,5.90
2011,05,28,04,34,5.90
2011,05,28,04,35,5.90
2011,05,28,04,36,5.90
2011,05,28,04,37,5.90
2011,05,28,04,38,5.90
2011,05,28,04,39,5.90
2011,05,28,04,40,5.90
2011,05,28,04,41,5.90
2011,05,28,04,42,5.90
2011,05,28,04,43,5.90
2011,05,28,04,44,5.90
2011,05,28,04,45,5.90
2011,05,28,04,46,6.00
2011,05,28,04,47,6.00
2011,05,28,04,48,6.00
2011,05,28,04,49,6.00
2011,05,28,04,50,6.00
2011,05,28,04,51,6.00
2011,05,28,04,52,6.10
2011,05,28,04,53,6.10
2011,05,28,04,54,6.10
2011,05,28,04,55,6.10
2011,05,28,04,56,6.10
2011,05,28,04,57,6.10
2011,05,28,04,58,6.10
2011,05,28,04,59,6.10
2011,05,28,05,00,6.10
2011,05,28,05,01,6.10
2011,05,28,05,02,6.20
2011,05,28,05,03,6.20
2011,05,28,05,04,6.20
2011,05,28,05,05,6.20
2011,05,28,05,06,6.20
2011,05,28,05,07,6.20
2011,05,28,05,08,6.20
2011,05,28,05,09,6.20
2011,05,28,05,10,6.20
2011,05,28,05,11,6.20
2011,05,28,05,12,6.20
2011,05,28,05,13,6.20
2011,05,28,05,14,6.20
2011,05,28,05,15,6.20
2011,05,28,05,16,6.20
2011,05,28,05,17,6.20
2011,05,28,05,18,6.20
2011,05,28,05,19,6.20
2011,05,28,05,20,6.20
2011,05,28,05,21,6.20
2011,05,28,05,22,6.20
2011,05,28,05,23,6.20
2011,05,28,05,24,6.10
2011,05,28,05,25,6.10
2011,05,28,05,26,6.10
2011,05,28,05,27,6.10
2011,05,28,05,28,6.10
2011,05,28,05,29,6.10
2011,05,28,05,30,6.10
2011,05,28,05,31,6.10
2011,05,28,05,32,6.10
2011,05,28,05,33,6.10
2011,05,28,05,34,6.10
2011,05,28,05,35,6.10
2011,05,28,05,36,6.10
2011,05,28,05,37,6.10
2011,05,28,05,38,6.00
2011,05,28,05,39,6.00
2011,05,28,05,40,6.00
2011,05,28,05,41,6.00
2011,05,28,05,42,6.00
2011,05,28,05,43,6.00
2011,05,28,05,44,6.00
2011,05,28,05,45,6.00
2011,05,28,05,46,5.90
2011,05,28,05,47,5.90
2011,05,28,05,48,5.90
2011,05,28,05,49,5.90
2011,05,28,05,50,5.90
2011,05,28,05,51,5.90
2011,05,28,05,52,5.80
2011,05,28,05,53,5.80
2011,05,28,05,54,5.80
2011,05,28,05,55,5.80
2011,05,28,05,56,5.80
2011,05,28,05,57,5.80
2011,05,28,05,58,5.80
2011,05,28,05,59,5.80
2011,05,28,06,00,5.80
2011,05,28,06,01,5.70
2011,05,28,06,02,5.70
2011,05,28,06,03,5.70
2011,05,28,06,04,5.70
2011,05,28,06,05,5.70
2011,05,28,06,06,5.70
2011,05,28,06,07,5.70
2011,05,28,06,08,5.70
2011,05,28,06,09,5.70
2011,05,28,06,10,5.70
2011,05,28,06,11,5.70
2011,05,28,06,12,5.70
2011,05,28,06,13,5.70
2011,05,28,06,14,5.70
2011,05,28,06,15,5.80
2011,05,28,06,16,5.80
2011,05,28,06,17,5.80
2011,05,28,06,18,5.80
2011,05,28,06,19,5.90
2011,05,28,06,20,5.90
2011,05,28,06,21,6.00
2011,05,28,06,22,6.00
2011,05,28,06,23,6.10
2011,05,28,06,24,6.10
2011,05,28,06,25,6.20
2011,05,28,06,26,6.20
2011,05,28,06,27,6.20
2011,05,28,06,28,6.20
2011,05,28,06,29,6.20
2011,05,28,06,30,6.30
2011,05,28,06,31,6.30
2011,05,28,06,32,6.30
2011,05,28,06,33,6.40
2011,05,28,06,34,6.40
2011,05,28,06,35,6.50
2011,05,28,06,36,6.60
2011,05,28,06,37,6.60
2011,05,28,06,38,6.60
2011,05,28,06,39,6.70
2011,05,28,06,40,6.70
2011,05,28,06,41,6.80
2011,05,28,06,42,6.80
2011,05,28,06,43,6.80
2011,05,28,06,44,6.80
2011,05,28,06,45,6.80
2011,05,28,06,46,6.90
2011,05,28,06,47,6.90
2011,05,28,06,48,7.00
2011,05,28,06,49,7.00
2011,05,28,06,50,7.00
2011,05,28,06,51,7.10
2011,05,28,06,52,7.10
2011,05,28,06,53,7.20
2011,05,28,06,54,7.20
2011,05,28,06,55,7.30
2011,05,28,06,56,7.30
2011,05,28,06,57,7.30
2011,05,28,06,58,7.30
2011,05,28,06,59,7.40
2011,05,28,07,00,7.40
2011,05,28,07,01,7.40
2011,05,28,07,02,7.50
2011,05,28,07,03,7.50
2011,05,28,07,04,7.50
2011,05,28,07,05,7.60
2011,05,28,07,06,7.60
2011,05,28,07,07,7.60
2011,05,28,07,08,7.60
2011,05,28,07,09,7.70
2011,05,28,07,10,7.70
2011,05,28,07,11,7.70
2011,05,28,07,12,7.80
2011,05,28,07,13,7.80
2011,05,28,07,14,7.80
2011,05,28,07,15,7.80
2011,05,28,07,16,7.80
2011,05,28,07,17,7.80
2011,05,28,07,18,7.90
2011,05,28,07,19,7.90
2011,05,28,07,20,7.90
2011,05,28,07,21,7.90
2011,05,28,07,22,7.90
2011,05,28,07,23,8.00
2011,05,28,07,24,8.00
2011,05,28,07,25,8.00
2011,05,28,07,26,8.00
2011,05,28,07,27,8.00
2011,05,28,07,28,8.00
2011,05,28,07,29,8.10
2011,05,28,07,30,8.10
2011,05,28,07,31,8.10
2011,05,28,07,32,8.10
2011,05,28,07,33,8.10
2011,05,28,07,34,8.10
2011,05,28,07,35,8.10
2011,05,28,07,36,8.10
2011,05,28,07,37,8.10
2011,05,28,07,38,8.20
2011,05,28,07,39,8.20
2011,05,28,07,40,8.20
2011,05,28,07,41,8.20
2011,05,28,07,42,8.20
2011,05,28,07,43,8.20
2011,05,28,07,44,8.20
2011,05,28,07,45,8.20
2011,05,28,07,46,8.20
2011,05,28,07,47,8.30
2011,05,28,07,48,8.30
2011,05,28,07,49,8.30
2011,05,28,07,50,8.30
2011,05,28,07,51,8.30
2011,05,28,07,52,8.40
2011,05,28,07,53,8.40
2011,05,28,07,54,8.40
2011,05,28,07,55,8.40
2011,05,28,07,56,8.40
2011,05,28,07,57,8.50
2011,05,28,07,58,8.50
2011,05,28,07,59,8.50
2011,05,28,08,00,8.50
2011,05,28,08,01,8.60
2011,05,28,08,02,8.60
2011,05,28,08,03,8.60
2011,05,28,08,04,8.70
2011,05,28,08,05,8.70
2011,05,28,08,06,8.70
2011,05,28,08,07,8.70
2011,05,28,08,08,8.70
2011,05,28,08,09,8.70
2011,05,28,08,10,8.70
2011,05,28,08,11,8.70
2011,05,28,08,12,8.80
2011,05,28,08,13,8.90
2011,05,28,08,14,8.90
2011,05,28,08,15,9.00
2011,05,28,08,16,9.00
2011,05,28,08,17,9.00
2011,05,28,08,18,9.00
2011,05,28,08,19,9.10
2011,05,28,08,20,9.10
2011,05,28,08,21,9.20
2011,05,28,08,22,9.20
2011,05,28,08,23,9.20
2011,05,28,08,24,9.30
2011,05,28,08,25,9.30
2011,05,28,08,26,9.40
2011,05,28,08,27,9.50
2011,05,28,08,28,9.60
2011,05,28,08,29,9.70
2011,05,28,08,30,9.70
2011,05,28,08,31,9.70
2011,05,28,08,32,9.70
2011,05,28,08,33,9.70
2011,05,28,08,34,9.80
2011,05,28,08,35,9.80
2011,05,28,08,36,9.90
2011,05,28,08,37,9.90
2011,05,28,08,38,10.00
2011,05,28,08,39,10.10
2011,05,28,08,40,10.10
2011,05,28,08,41,10.20
2011,05,28,08,42,10.20
2011,05,28,08,43,10.20
2011,05,28,08,44,10.20
2011,05,28,08,45,10.20
2011,05,28,08,46,10.20
2011,05,28,08,47,10.30
2011,05,28,08,48,10.30
2011,05,28,08,49,10.30
2011,05,28,08,50,10.30
2011,05,28,08,51,10.30
2011,05,28,08,52,10.40
2011,05,28,08,53,10.40
2011,05,28,08,54,10.40
2011,05,28,08,55,10.30
2011,05,28,08,56,10.30
2011,05,28,08,57,10.30
2011,05,28,08,58,10.40
2011,05,28,08,59,10.40
2011,05,28,09,00,10.30
2011,05,28,09,01,10.30
2011,05,28,09,02,10.30
2011,05,28,09,03,10.30
2011,05,28,09,04,10.20
2011,05,28,09,05,10.20
2011,05,28,09,06,10.30
2011,05,28,09,07,10.40
2011,05,28,09,08,10.40
2011,05,28,09,09,10.40
2011,05,28,09,10,10.50
2011,05,28,09,11,10.60
2011,05,28,09,12,10.60
2011,05,28,09,13,10.60
2011,05,28,09,14,10.60
2011,05,28,09,15,10.50
2011,05,28,09,16,10.40
2011,05,28,09,17,10.40
2011,05,28,09,18,10.60
2011,05,28,09,19,10.60
2011,05,28,09,20,10.60
2011,05,28,09,21,10.70
2011,05,28,09,22,10.70
2011,05,28,09,23,10.70
2011,05,28,09,24,10.60
2011,05,28,09,25,10.70
2011,05,28,09,26,10.70
2011,05,28,09,27,10.70
2011,05,28,09,28,10.70
2011,05,28,09,29,10.70
2011,05,28,09,30,10.60
2011,05,28,09,31,10.60
2011,05,28,09,32,10.60
2011,05,28,09,33,10.60
2011,05,28,09,34,10.70
2011,05,28,09,35,10.70
2011,05,28,09,36,10.70
2011,05,28,09,37,10.80
2011,05,28,09,38,10.80
2011,05,28,09,39,10.90
2011,05,28,09,40,10.90
2011,05,28,09,41,10.90
2011,05,28,09,42,10.90
2011,05,28,09,43,10.80
2011,05,28,09,44,10.80
2011,05,28,09,45,10.80
2011,05,28,09,46,10.70
2011,05,28,09,47,10.70
2011,05,28,09,48,10.60
2011,05,28,09,49,10.60
2011,05,28,09,50,10.60
2011,05,28,09,51,10.50
2011,05,28,09,52,10.40
2011,05,28,09,53,10.40
2011,05,28,09,54,10.40
2011,05,28,09,55,10.30
2011,05,28,09,56,10.30
2011,05,28,09,57,10.20
2011,05,28,09,58,10.30
2011,05,28,09,59,10.30
2011,05,28,10,00,10.30
2011,05,28,10,01,10.30
2011,05,28,10,02,10.30
2011,05,28,10,03,10.40
2011,05,28,10,04,10.40
2011,05,28,10,05,10.40
2011,05,28,10,06,10.40
2011,05,28,10,07,10.40
2011,05,28,10,08,10.40
2011,05,28,10,09,10.40
2011,05,28,10,10,10.40
2011,05,28,10,11,10.30
2011,05,28,10,12,10.30
2011,05,28,10,13,10.30
2011,05,28,10,14,10.40
2011,05,28,10,15,10.40
2011,05,28,10,16,10.30
2011,05,28,10,17,10.30
2011,05,28,10,18,10.30
2011,05,28,10,19,10.30
2011,05,28,10,20,10.30
2011,05,28,10,21,10.30
2011,05,28,10,22,10.30
2011,05,28,10,23,10.30
2011,05,28,10,24,10.30
2011,05,28,10,25,10.40
2011,05,28,10,26,10.40
2011,05,28,10,27,10.30
2011,05,28,10,28,10.30
2011,05,28,10,29,10.30
2011,05,28,10,30,10.20
2011,05,28,10,31,10.20
2011,05,28,10,32,10.30
2011,05,28,10,33,10.30
2011,05,28,10,34,10.40
2011,05,28,10,35,10.60
2011,05,28,10,36,10.60
2011,05,28,10,37,10.60
2011,05,28,10,38,10.70
2011,05,28,10,39,10.80
2011,05,28,10,40,10.90
2011,05,28,10,41,11.00
2011,05,28,10,42,11.10
2011,05,28,10,43,11.10
2011,05,28,10,44,11.20
2011,05,28,10,45,11.20
2011,05,28,10,46,11.30
2011,05,28,10,47,11.30
2011,05,28,10,48,11.20
2011,05,28,10,49,11.10
2011,05,28,10,50,11.10
2011,05,28,10,51,11.10
2011,05,28,10,52,11.20
2011,05,28,10,53,11.20
2011,05,28,10,54,11.30
2011,05,28,10,55,11.20
2011,05,28,10,56,11.30
2011,05,28,10,57,11.30
2011,05,28,10,58,11.30
2011,05,28,10,59,11.20
2011,05,28,11,00,11.20
2011,05,28,11,01,11.20
2011,05,28,11,02,11.30
2011,05,28,11,03,11.20
2011,05,28,11,04,11.20
2011,05,28,11,05,11.20
2011,05,28,11,06,11.10
2011,05,28,11,07,11.00
2011,05,28,11,08,10.90
2011,05,28,11,09,10.80
2011,05,28,11,10,10.70
2011,05,28,11,11,10.70
2011,05,28,11,12,10.70
2011,05,28,11,13,10.70
2011,05,28,11,14,10.60
2011,05,28,11,15,10.60
2011,05,28,11,16,10.60
2011,05,28,11,17,10.60
2011,05,28,11,18,10.60
2011,05,28,11,19,10.40
2011,05,28,11,20,10.40
2011,05,28,11,21,10.40
2011,05,28,11,22,10.40
2011,05,28,11,23,10.40
2011,05,28,11,24,10.40
2011,05,28,11,25,10.40
2011,05,28,11,26,10.50
2011,05,28,11,27,10.60
2011,05,28,11,28,10.60
2011,05,28,11,29,10.60
2011,05,28,11,30,10.60
2011,05,28,11,31,10.60
2011,05,28,11,32,10.60
2011,05,28,11,33,10.60
2011,05,28,11,34,10.60
2011,05,28,11,35,10.60
2011,05,28,11,36,10.60
2011,05,28,11,37,10.70
2011,05,28,11,38,10.70
2011,05,28,11,39,10.70
2011,05,28,11,40,10.70
2011,05,28,11,41,10.70
2011,05,28,11,42,10.60
2011,05,28,11,43,10.60
2011,05,28,11,44,10.60
2011,05,28,11,45,10.60
2011,05,28,11,46,10.70
2011,05,28,11,47,10.70
2011,05,28,11,48,10.80
2011,05,28,11,49,10.80
2011,05,28,11,50,10.80
2011,05,28,11,51,10.80
2011,05,28,11,52,10.80
2011,05,28,11,53,10.80
2011,05,28,11,54,10.80
2011,05,28,11,55,10.90
2011,05,28,11,56,10.90
2011,05,28,11,57,10.90
2011,05,28,11,58,10.90
2011,05,28,11,59,10.90
2011,05,28,12,00,11.10
2011,05,28,12,01,11.10
2011,05,28,12,02,11.10
2011,05,28,12,03,11.30
2011,05,28,12,04,11.40
2011,05,28,12,05,11.40
2011,05,28,12,06,11.50
2011,05,28,12,07,11.60
2011,05,28,12,08,11.60
2011,05,28,12,09,11.60
2011,05,28,12,10,11.60
2011,05,28,12,11,11.60
2011,05,28,12,12,11.60
2011,05,28,12,13,11.60
2011,05,28,12,14,11.70
2011,05,28,12,15,11.80
2011,05,28,12,16,11.80
2011,05,28,12,17,11.90
2011,05,28,12,18,11.90
2011,05,28,12,19,11.90
2011,05,28,12,20,12.00
2011,05,28,12,21,12.00
2011,05,28,12,22,12.10
2011,05,28,12,23,12.20
2011,05,28,12,24,12.30
2011,05,28,12,25,12.40
2011,05,28,12,26,12.40
2011,05,28,12,27,12.40
2011,05,28,12,28,12.40
2011,05,28,12,29,12.40
2011,05,28,12,30,12.30
2011,05,28,12,31,12.20
2011,05,28,12,32,12.10
2011,05,28,12,33,12.00
2011,05,28,12,34,11.90
2011,05,28,12,35,11.80
2011,05,28,12,36,11.80
2011,05,28,12,37,11.90
2011,05,28,12,38,11.80
2011,05,28,12,39,11.80
2011,05,28,12,40,11.90
2011,05,28,12,41,12.00
2011,05,28,12,42,12.20
2011,05,28,12,43,12.30
2011,05,28,12,44,12.30
2011,05,28,12,45,12.30
2011,05,28,12,46,12.20
2011,05,28,12,47,12.20
2011,05,28,12,48,12.10
2011,05,28,12,49,12.10
2011,05,28,12,50,12.10
2011,05,28,12,51,12.10
2011,05,28,12,52,12.10
2011,05,28,12,53,12.10
2011,05,28,12,54,12.20
2011,05,28,12,55,12.30
2011,05,28,12,56,12.50
2011,05,28,12,57,12.60
2011,05,28,12,58,12.70
2011,05,28,12,59,12.80
2011,05,28,13,00,12.90
2011,05,28,13,01,12.90
2011,05,28,13,02,12.90
2011,05,28,13,03,12.90
2011,05,28,13,04,12.90
2011,05,28,13,05,12.90
2011,05,28,13,06,12.90
2011,05,28,13,07,12.90
2011,05,28,13,08,12.80
2011,05,28,13,09,12.80
2011,05,28,13,10,12.80
2011,05,28,13,11,12.80
2011,05,28,13,12,12.70
2011,05,28,13,13,12.70
2011,05,28,13,14,12.80
2011,05,28,13,15,12.70
2011,05,28,13,16,12.70
2011,05,28,13,17,12.70
2011,05,28,13,18,12.70
2011,05,28,13,19,12.60
2011,05,28,13,20,12.60
2011,05,28,13,21,12.70
2011,05,28,13,22,12.80
2011,05,28,13,23,12.90
2011,05,28,13,24,13.00
2011,05,28,13,25,13.10
2011,05,28,13,26,13.10
2011,05,28,13,27,13.10
2011,05,28,13,28,13.20
2011,05,28,13,29,13.20
2011,05,28,13,30,13.20
2011,05,28,13,31,13.20
2011,05,28,13,32,13.10
2011,05,28,13,33,13.00
2011,05,28,13,34,12.90
2011,05,28,13,35,13.00
2011,05,28,13,36,13.00
2011,05,28,13,37,13.00
2011,05,28,13,38,13.00
2011,05,28,13,39,13.00
2011,05,28,13,40,13.10
2011,05,28,13,41,13.20
2011,05,28,13,42,13.30
2011,05,28,13,43,13.30
2011,05,28,13,44,13.20
2011,05,28,13,45,13.20
2011,05,28,13,46,13.20
2011,05,28,13,47,13.20
2011,05,28,13,48,13.30
2011,05,28,13,49,13.30
2011,05,28,13,50,13.20
2011,05,28,13,51,13.20
2011,05,28,13,52,13.20
2011,05,28,13,53,13.10
2011,05,28,13,54,13.10
2011,05,28,13,55,13.20
2011,05,28,13,56,13.20
2011,05,28,13,57,13.20
2011,05,28,13,58,13.20
2011,05,28,13,59,13.30
2011,05,28,14,00,13.30
2011,05,28,14,01,13.30
2011,05,28,14,02,13.20
2011,05,28,14,03,13.30
2011,05,28,14,04,13.20
2011,05,28,14,05,13.20
2011,05,28,14,06,13.10
2011,05,28,14,07,13.10
2011,05,28,14,08,13.10
2011,05,28,14,09,13.20
2011,05,28,14,10,13.20
2011,05,28,14,11,13.20
2011,05,28,14,12,13.20
2011,05,28,14,13,13.20
2011,05,28,14,14,13.10
2011,05,28,14,15,13.10
2011,05,28,14,16,13.10
2011,05,28,14,17,13.10
2011,05,28,14,18,13.10
2011,05,28,14,19,13.00
2011,05,28,14,20,12.90
2011,05,28,14,21,12.90
2011,05,28,14,22,12.90
2011,05,28,14,23,13.00
2011,05,28,14,24,13.00
2011,05,28,14,25,13.10
2011,05,28,14,26,13.20
2011,05,28,14,27,13.30
2011,05,28,14,28,13.20
2011,05,28,14,29,13.20
2011,05,28,14,30,13.10
2011,05,28,14,31,13.10
2011,05,28,14,32,13.20
2011,05,28,14,33,13.30
2011,05,28,14,34,13.30
2011,05,28,14,35,13.20
2011,05,28,14,36,13.20
2011,05,28,14,37,13.10
2011,05,28,14,38,13.10
2011,05,28,14,39,13.10
2011,05,28,14,40,13.10
2011,05,28,14,41,13.20
2011,05,28,14,42,13.20
2011,05,28,14,43,13.20
2011,05,28,14,44,13.20
2011,05,28,14,45,13.20
2011,05,28,14,46,13.20
2011,05,28,14,47,13.20
2011,05,28,14,48,13.20
2011,05,28,14,49,13.30
2011,05,28,14,50,13.30
2011,05,28,14,51,13.30
2011,05,28,14,52,13.30
2011,05,28,14,53,13.30
2011,05,28,14,54,13.30
2011,05,28,14,55,13.40
2011,05,28,14,56,13.40
2011,05,28,14,57,13.50
2011,05,28,14,58,13.50
2011,05,28,14,59,13.50
2011,05,28,15,00,13.50
2011,05,28,15,01,13.50
2011,05,28,15,02,13.40
2011,05,28,15,03,13.30
2011,05,28,15,04,13.30
2011,05,28,15,05,13.20
2011,05,28,15,06,13.20
2011,05,28,15,07,13.30
2011,05,28,15,08,13.30
2011,05,28,15,09,13.30
2011,05,28,15,10,13.30
2011,05,28,15,11,13.30
2011,05,28,15,12,13.20
2011,05,28,15,13,13.20
2011,05,28,15,14,13.20
2011,05,28,15,15,13.20
2011,05,28,15,16,13.20
2011,05,28,15,17,13.30
2011,05,28,15,18,13.30
2011,05,28,15,19,13.40
2011,05,28,15,20,13.40
2011,05,28,15,21,13.30
2011,05,28,15,22,13.40
2011,05,28,15,23,13.40
2011,05,28,15,24,13.40
2011,05,28,15,25,13.30
2011,05,28,15,26,13.30
2011,05,28,15,27,13.30
2011,05,28,15,28,13.30
2011,05,28,15,29,13.30
2011,05,28,15,30,13.30
2011,05,28,15,31,13.30
2011,05,28,15,32,13.40
2011,05,28,15,33,13.40
2011,05,28,15,34,13.50
2011,05,28,15,35,13.60
2011,05,28,15,36,13.60
2011,05,28,15,37,13.60
2011,05,28,15,38,13.50
2011,05,28,15,39,13.50
2011,05,28,15,40,13.40
2011,05,28,15,41,13.50
2011,05,28,15,42,13.50
2011,05,28,15,43,13.50
2011,05,28,15,44,13.60
2011,05,28,15,45,13.70
2011,05,28,15,46,13.70
2011,05,28,15,47,13.90
2011,05,28,15,48,14.00
2011,05,28,15,49,14.20
2011,05,28,15,50,14.40
2011,05,28,15,51,14.60
2011,05,28,15,52,14.70
2011,05,28,15,53,14.80
2011,05,28,15,54,14.80
2011,05,28,15,55,14.80
2011,05,28,15,56,14.80
2011,05,28,15,57,14.80
2011,05,28,15,58,14.90
2011,05,28,15,59,15.00
2011,05,28,16,00,15.10
2011,05,28,16,01,15.00
2011,05,28,16,02,14.90
2011,05,28,16,03,14.80
2011,05,28,16,04,14.70
2011,05,28,16,05,14.70
2011,05,28,16,06,14.60
2011,05,28,16,07,14.60
2011,05,28,16,08,14.50
2011,05,28,16,09,14.40
2011,05,28,16,10,14.40
2011,05,28,16,11,14.50
2011,05,28,16,12,14.60
2011,05,28,16,13,14.60
2011,05,28,16,14,14.70
2011,05,28,16,15,14.80
2011,05,28,16,16,14.90
2011,05,28,16,17,15.00
2011,05,28,16,18,15.10
2011,05,28,16,19,15.10
2011,05,28,16,20,15.20
2011,05,28,16,21,15.30
2011,05,28,16,22,15.10
2011,05,28,16,23,15.00
2011,05,28,16,24,14.90
2011,05,28,16,25,14.70
2011,05,28,16,26,14.60
2011,05,28,16,27,14.60
2011,05,28,16,28,14.60
2011,05,28,16,29,14.50
2011,05,28,16,30,14.40
2011,05,28,16,31,14.30
2011,05,28,16,32,14.20
2011,05,28,16,33,14.10
2011,05,28,16,34,14.10
2011,05,28,16,35,14.00
2011,05,28,16,36,14.00
2011,05,28,16,37,14.00
2011,05,28,16,38,14.10
2011,05,28,16,39,14.10
2011,05,28,16,40,14.10
2011,05,28,16,41,14.20
2011,05,28,16,42,14.30
2011,05,28,16,43,14.30
2011,05,28,16,44,14.30
2011,05,28,16,45,14.30
2011,05,28,16,46,14.40
2011,05,28,16,47,14.40
2011,05,28,16,48,14.40
2011,05,28,16,49,14.50
2011,05,28,16,50,14.50
2011,05,28,16,51,14.50
2011,05,28,16,52,14.60
2011,05,28,16,53,14.60
2011,05,28,16,54,14.70
2011,05,28,16,55,14.70
2011,05,28,16,56,14.60
2011,05,28,16,57,14.60
2011,05,28,16,58,14.50
2011,05,28,16,59,14.50
2011,05,28,17,00,14.50
2011,05,28,17,01,14.50
2011,05,28,17,02,14.40
2011,05,28,17,03,14.30
2011,05,28,17,04,14.20
2011,05,28,17,05,14.20
2011,05,28,17,06,14.10
2011,05,28,17,07,14.10
2011,05,28,17,08,14.10
2011,05,28,17,09,14.10
2011,05,28,17,10,14.20
2011,05,28,17,11,14.20
2011,05,28,17,12,14.30
2011,05,28,17,13,14.30
2011,05,28,17,14,14.30
2011,05,28,17,15,14.30
2011,05,28,17,16,14.40
2011,05,28,17,17,14.50
2011,05,28,17,18,14.60
2011,05,28,17,19,14.70
2011,05,28,17,20,14.80
2011,05,28,17,21,14.80
2011,05,28,17,22,14.80
2011,05,28,17,23,14.80
2011,05,28,17,24,14.80
2011,05,28,17,25,14.80
2011,05,28,17,26,14.80
2011,05,28,17,27,14.80
2011,05,28,17,28,14.60
2011,05,28,17,29,14.60
2011,05,28,17,30,14.60
2011,05,28,17,31,14.50
2011,05,28,17,32,14.50
2011,05,28,17,33,14.50
2011,05,28,17,34,14.50
2011,05,28,17,35,14.60
2011,05,28,17,36,14.60
2011,05,28,17,37,14.60
2011,05,28,17,38,14.60
2011,05,28,17,39,14.70
2011,05,28,17,40,14.80
2011,05,28,17,41,14.70